Dallesport, WA

4:55 AM PST on January 16, 2017 (GMT -0800)
Columbia Gorge Regional-The Dalles

Weather History for KDLS - April, 2014

Change the Weather History Date:

Monday, April 28, 2014

  Actual Average Record
Temperature  
Mean Temperature 52 °F -  
Max Temperature 66 °F 67 °F 91 °F (1968)
Min Temperature 39 °F 45 °F 32 °F (1967)
Degree Days  
Heating Degree Days 12    
Growing Degree Days 2 (Base 50)    
Moisture  
Dew Point 37 °F    
Average Humidity 57    
Maximum Humidity 93    
Minimum Humidity 29    
Precipitation  
Precipitation 0.00 in - - ()
Sea Level Pressure  
Sea Level Pressure 30.31 in    
Wind  
Wind Speed 6 mph (NW)    
Max Wind Speed 13 mph    
Max Gust Speed -    
Visibility 10 miles    
Events      
Averages and records for this station are not official NWS values.
T = Trace of Precipitation, MM = Missing Value Source: NWS Daily Summary

Daily Weather History Graph

Daily Weather History Graph

Search for Another Location

Airport or City:

Trip Planner

Search our weather history database for the weather conditions in past years. The results will help you decide how hot, cold, wet, or windy it might be!

Date:

Astronomy

Apr. 28, 2014 Rise Set
Actual Time 5:57 AM PDT 8:08 PM PDT
Civil Twilight 5:24 AM PDT 8:40 PM PDT
Nautical Twilight 4:44 AM PDT 9:21 PM PDT
Astronomical Twilight 3:59 AM PDT 10:06 PM PDT
Moon 5:41 AM PDT (4/28) 7:50 PM PDT (4/28)
Length of Visible Light 15h 16m
Length of Day
14h 11m
Waning Crescent, 0% of the Moon is Illuminated
Apr 28
Waning Crescent
Apr 28
New
May 6
First Quarter
May 14
Full
May 21
Last Quarter

Hourly Weather History & Observations

Time (PDT) Temp. Windchill Dew Point Humidity Pressure Visibility Wind Dir Wind Speed Gust Speed Precip Events Conditions
1:53 AM 44.1 °F 39.5 °F 37.9 °F 79% 30.18 in 10.0 mi NW 8.1 mph - N/A   Mostly Cloudy
3:53 AM 39.9 °F 37.8 °F 37.9 °F 93% 30.24 in 10.0 mi WSW 3.5 mph - N/A   Mostly Cloudy
4:53 AM 39.9 °F 36.7 °F 37.9 °F 93% 30.25 in 10.0 mi ESE 4.6 mph - N/A   Mostly Cloudy
5:53 AM 41.0 °F 39.0 °F 37.9 °F 89% 30.27 in 10.0 mi West 3.5 mph - N/A   Overcast
7:53 AM 46.9 °F - 39.9 °F 77% 30.32 in 10.0 mi West 5.8 mph - N/A   Clear
8:53 AM 50.0 °F - 42.1 °F 74% 30.32 in 10.0 mi NNW 6.9 mph - N/A   Clear
9:53 AM 53.1 °F - 41.0 °F 64% 30.32 in 10.0 mi NNW 12.7 mph - N/A   Clear
10:53 AM 55.9 °F - 37.0 °F 49% 30.33 in 10.0 mi NNW 9.2 mph - N/A   Clear
11:53 AM 57.9 °F - 37.9 °F 47% 30.33 in 10.0 mi North 5.8 mph - N/A   Clear
12:53 PM 59.0 °F - 37.0 °F 44% 30.32 in 10.0 mi NW 4.6 mph - N/A   Clear
1:53 PM 62.1 °F - 35.1 °F 37% 30.31 in 10.0 mi NNW 9.2 mph - N/A   Clear
2:53 PM 63.0 °F - 35.1 °F 35% 30.31 in 10.0 mi Variable 6.9 mph - N/A   Clear
3:53 PM 64.0 °F - 34.0 °F 33% 30.30 in 10.0 mi Variable 3.5 mph - N/A   Clear
4:53 PM 66.0 °F - 33.1 °F 29% 30.29 in 10.0 mi Variable 5.8 mph - N/A   Clear
5:53 PM 66.0 °F - 33.1 °F 29% 30.30 in 10.0 mi North 3.5 mph - N/A   Clear
6:53 PM 64.9 °F - 33.1 °F 31% 30.30 in 10.0 mi Calm Calm - N/A   Clear
8:53 PM 55.0 °F - 37.9 °F 53% 30.33 in 10.0 mi Calm Calm - N/A   Clear
9:53 PM 50.0 °F - 37.0 °F 61% 30.35 in 10.0 mi ESE 3.5 mph - N/A   Clear
10:53 PM 48.0 °F - 37.0 °F 66% 30.38 in 10.0 mi Calm Calm - N/A   Scattered Clouds
11:53 PM 50.0 °F - 37.9 °F 63% 30.40 in 10.0 mi Calm Calm - N/A   Overcast